ITUPSAT1

Last updated on Sun Jun 21 2026 00:03:20 GMT+0000 (Coordinated Universal Time)

1 35935U 09051E 26171.25204671 .00000541 00000+0 12172-3 0 9999 2 35935 98.4046 78.0115 0006403 222.9093 137.1608 14.60444493889189
UTC large
Height (km)
Speed (km/s)
/
Latitude / Longitude
Inclination (degrees)
Orbital Period (minutes)
Azimuth
Elevation
Range (km)
Doppler Factor

Next 0 passes for location: London (51.5072 / 0.1276)

No passes found over London.
ITUPSAT1